TimeCDT,TemperatureF,Dew PointF,Humidity,Sea Level PressureIn,VisibilityMPH,Wind Direction,Wind SpeedMPH,Gust SpeedMPH,PrecipitationIn,Events,Conditions,WindDirDegrees,DateUTC
12:52 AM,51.1,46.0,83,30.06,10.0,NNW,11.5,-,N/A,,Partly Cloudy,340,2013-06-02 05:52:00
1:52 AM,52.0,46.0,80,30.07,10.0,NNW,10.4,-,N/A,,Overcast,330,2013-06-02 06:52:00
2:52 AM,52.0,45.0,77,30.08,10.0,NNW,16.1,-,N/A,,Overcast,340,2013-06-02 07:52:00
3:20 AM,51.8,46.4,82,30.08,10.0,North,6.9,-,0.00,,Overcast,350,2013-06-02 08:20:00
3:52 AM,51.1,46.9,86,30.09,10.0,North,4.6,-,0.00,,Overcast,360,2013-06-02 08:52:00
4:07 AM,51.8,46.4,82,30.08,10.0,Calm,Calm,-,N/A,,Overcast,0,2013-06-02 09:07:00
4:52 AM,51.1,45.0,80,30.09,10.0,NNW,8.1,-,N/A,,Overcast,330,2013-06-02 09:52:00
5:52 AM,51.1,44.1,77,30.10,10.0,NNW,9.2,-,N/A,,Overcast,340,2013-06-02 10:52:00
6:52 AM,51.1,44.1,77,30.11,10.0,North,9.2,-,N/A,,Overcast,350,2013-06-02 11:52:00
7:52 AM,54.0,45.0,72,30.11,10.0,North,6.9,-,N/A,,Mostly Cloudy,360,2013-06-02 12:52:00
8:52 AM,55.9,44.1,64,30.13,10.0,North,9.2,-,N/A,,Overcast,10,2013-06-02 13:52:00
9:52 AM,55.9,44.1,64,30.13,10.0,North,10.4,-,N/A,,Overcast,10,2013-06-02 14:52:00
10:52 AM,57.9,43.0,58,30.13,10.0,NE,8.1,-,N/A,,Mostly Cloudy,40,2013-06-02 15:52:00
11:52 AM,60.1,44.1,55,30.14,10.0,Variable,4.6,-,N/A,,Scattered Clouds,0,2013-06-02 16:52:00
12:52 PM,62.1,45.0,53,30.12,10.0,Variable,3.5,-,N/A,,Scattered Clouds,0,2013-06-02 17:52:00
1:52 PM,63.0,44.1,50,30.11,10.0,Variable,4.6,17.3,N/A,,Scattered Clouds,0,2013-06-02 18:52:00
2:52 PM,64.9,45.0,48,30.09,10.0,NNE,6.9,-,N/A,,Clear,20,2013-06-02 19:52:00
3:52 PM,66.0,43.0,43,30.07,10.0,Variable,3.5,-,N/A,,Clear,0,2013-06-02 20:52:00
4:52 PM,68.0,45.0,43,30.05,10.0,Variable,3.5,-,N/A,,Clear,0,2013-06-02 21:52:00
5:52 PM,66.0,41.0,40,30.04,10.0,ENE,3.5,-,N/A,,Clear,60,2013-06-02 22:52:00
6:52 PM,66.9,42.1,40,30.02,10.0,Calm,Calm,-,N/A,,Clear,0,2013-06-02 23:52:00
7:52 PM,64.9,42.1,43,30.01,10.0,Calm,Calm,-,N/A,,Clear,0,2013-06-03 00:52:00
8:52 PM,64.0,41.0,43,30.01,10.0,Calm,Calm,-,N/A,,Clear,0,2013-06-03 01:52:00
9:52 PM,59.0,44.1,58,30.03,10.0,Calm,Calm,-,N/A,,Clear,0,2013-06-03 02:52:00
10:52 PM,57.0,45.0,64,30.04,10.0,East,3.5,-,N/A,,Clear,100,2013-06-03 03:52:00
11:52 PM,53.1,44.1,71,30.03,10.0,East,4.6,-,N/A,,Clear,100,2013-06-03 04:52:00